SM2GSR-2 Weather Reports


Display with metric or nautical units.
time (UTC)temp
F
wind
direction
speed
MPH
gust
MPH
rain 1hr
in
rain 24hr
in
rain mn
in
humidity
%
barometer
mb
20260901192505 51 299 1.0 5.0 0.00 0.12 0.02 86 999.1
20260901192004 51 281 2.0 5.0 0.00 0.12 0.02 86 999.1
20260901191504 50 290 2.0 3.0 0.00 0.12 0.02 87 999.1
20260901190504 50 272 1.0 3.0 0.00 0.12 0.02 88 999.1
20260901190004 50 300 0.0 0.0 0.00 0.12 0.02 88 999.1
20260901185004 50 300 1.0 7.0 0.00 0.12 0.02 87 999.1
20260901184004 51 275 0.0 0.0 0.00 0.12 0.02 86 999.1
20260901183504 51 275 0.0 2.0 0.00 0.12 0.02 86 999.1
20260901183004 52 275 0.0 0.0 0.00 0.12 0.02 85 999.1
20260901182504 52 275 0.0 0.0 0.00 0.12 0.02 85 999.1
20260901182004 53 275 0.0 0.0 0.00 0.12 0.02 85 999.1
20260901181505 53 275 0.0 3.0 0.00 0.13 0.02 84 999.1
20260901181004 53 275 0.0 0.0 0.00 0.13 0.02 84 999.0
20260901180504 53 275 0.0 2.0 0.00 0.14 0.02 84 999.0
20260901180004 53 275 0.0 0.0 0.00 0.14 0.02 84 998.9
20260901174504 55 275 0.0 0.0 0.00 0.16 0.02 80 999.0
20260901173504 56 275 0.0 0.0 0.00 0.16 0.02 78 999.0
20260901173004 57 275 1.0 3.0 0.00 0.16 0.02 76 998.9
20260901172504 57 272 1.0 5.0 0.00 0.16 0.02 75 998.9
20260901172004 57 285 2.0 6.0 0.00 0.16 0.02 75 998.8
20260901171504 57 313 5.0 12.0 0.00 0.16 0.02 74 998.8
20260901170504 58 292 3.0 10.0 0.00 0.16 0.02 74 998.8
20260901170004 58 303 2.0 10.0 0.00 0.16 0.02 74 998.7
20260901165504 58 288 3.0 8.0 0.00 0.16 0.02 74 998.7
20260901165004 58 313 0.0 5.0 0.00 0.16 0.02 74 998.8
20260901164504 58 304 2.0 6.0 0.00 0.16 0.02 74 998.8
20260901164004 58 305 2.0 7.0 0.00 0.16 0.02 73 998.8
20260901163504 58 298 2.0 10.0 0.00 0.16 0.02 72 998.7
20260901163004 58 308 2.0 9.0 0.00 0.16 0.02 70 998.7
20260901162505 58 285 2.0 7.0 0.00 0.16 0.02 71 998.7
20260901162004 58 295 4.0 8.0 0.00 0.16 0.02 70 998.7
20260901161004 59 296 3.0 8.0 0.00 0.16 0.02 73 998.5
20260901160504 59 298 1.0 6.0 0.00 0.16 0.02 73 998.5
20260901160004 59 294 3.0 8.0 0.00 0.16 0.02 72 998.5
20260901155505 59 266 2.0 7.0 0.00 0.16 0.02 73 998.5
20260901155004 59 291 0.0 6.0 0.00 0.16 0.02 72 998.5
20260901154504 60 252 2.0 6.0 0.00 0.16 0.02 71 998.5
20260901154004 60 294 1.0 9.0 0.00 0.16 0.02 71 998.4
20260901153504 60 304 4.0 10.0 0.00 0.16 0.02 70 998.4
20260901153004 60 290 3.0 9.0 0.00 0.16 0.02 70 998.3
20260901152004 60 289 3.0 7.0 0.00 0.16 0.02 71 998.3
20260901151005 60 298 3.0 10.0 0.00 0.16 0.02 69 998.3
20260901150504 60 297 5.0 9.0 0.00 0.16 0.02 69 998.3
20260901150004 60 308 2.0 9.0 0.00 0.16 0.02 71 998.3
20260901145505 60 283 3.0 8.0 0.00 0.16 0.02 71 998.3
20260901145004 60 294 5.0 9.0 0.00 0.16 0.02 70 998.3
20260901144004 60 289 1.0 7.0 0.00 0.16 0.02 71 998.2
20260901143504 60 308 4.0 7.0 0.00 0.17 0.02 70 998.2
20260901143004 61 283 3.0 12.0 0.00 0.17 0.02 71 998.2
20260901142004 61 311 3.0 12.0 0.00 0.17 0.02 70 998.2
20260901141504 61 296 2.0 9.0 0.00 0.17 0.02 73 998.2
20260901141004 61 329 3.0 5.0 0.00 0.17 0.02 70 998.3
20260901140504 61 291 2.0 6.0 0.00 0.17 0.02 72 998.2
20260901135505 61 264 2.0 8.0 0.00 0.17 0.02 70 998.1
20260901135005 61 293 2.0 6.0 0.00 0.18 0.02 72 998.1
20260901134504 61 275 3.0 12.0 0.00 0.19 0.02 72 998.1
20260901133004 61 306 1.0 6.0 0.00 0.68 0.02 72 998.1
20260901132504 61 280 6.0 10.0 0.00 0.68 0.02 71 998.0
20260901132004 60 286 2.0 8.0 0.00 0.68 0.02 74 998.0
20260901131504 60 286 4.0 10.0 0.00 0.68 0.02 72 998.0
20260901130505 60 302 5.0 9.0 0.00 0.68 0.02 72 997.9
20260901130004 60 290 6.0 12.0 0.00 0.68 0.02 72 997.9
20260901125504 60 298 1.0 9.0 0.00 0.68 0.02 75 997.9
20260901125004 60 285 6.0 10.0 0.00 0.68 0.02 73 997.9
20260901124505 60 302 1.0 12.0 0.00 0.68 0.02 75 997.9
20260901124004 60 281 4.0 12.0 0.00 0.68 0.02 74 997.9
20260901123505 61 298 2.0 7.0 0.00 0.68 0.02 73 997.8
20260901123004 61 288 1.0 8.0 0.00 0.68 0.02 72 997.9
20260901122506 62 294 5.0 12.0 0.00 0.68 0.02 72 997.8
20260901122005 62 243 3.0 8.0 0.00 0.68 0.02 71 997.8
20260901121504 62 299 3.0 8.0 0.00 0.68 0.02 74 997.7
20260901121005 61 252 3.0 10.0 0.00 0.68 0.02 75 997.7
20260901120504 61 268 5.0 10.0 0.00 0.68 0.02 76 997.7
20260901115504 60 293 1.0 8.0 0.00 0.68 0.02 76 997.6
20260901115004 60 326 5.0 12.0 0.00 0.68 0.02 77 997.7
20260901114504 60 307 4.0 8.0 0.00 0.68 0.02 78 997.6
20260901113504 60 302 5.0 10.0 0.00 0.68 0.02 76 997.7
20260901113005 60 281 4.0 10.0 0.00 0.68 0.02 79 997.6
20260901112004 60 282 4.0 9.0 0.00 0.68 0.02 78 997.7
20260901111504 60 296 4.0 9.0 0.00 0.68 0.02 77 997.6
20260901110004 59 318 5.0 9.0 0.00 0.68 0.02 78 997.5
20260901105504 59 291 3.0 8.0 0.00 0.68 0.02 80 997.5
20260901105004 59 290 2.0 5.0 0.00 0.68 0.02 82 997.5
20260901104004 58 297 4.0 9.0 0.00 0.68 0.02 81 997.4
20260901103504 58 292 3.0 10.0 0.00 0.68 0.02 82 997.4
20260901103004 58 318 3.0 7.0 0.00 0.68 0.02 83 997.4
20260901102505 58 319 5.0 12.0 0.00 0.68 0.02 83 997.4
20260901102004 58 310 5.0 9.0 0.00 0.68 0.02 82 997.4
20260901101504 58 304 5.0 8.0 0.00 0.68 0.02 84 997.3
20260901100504 58 263 0.0 5.0 0.00 0.68 0.02 85 997.3
20260901095504 57 283 1.0 5.0 0.00 0.68 0.02 87 997.2
20260901094504 57 339 2.0 7.0 0.00 0.68 0.02 86 997.2
20260901094005 56 289 2.0 8.0 0.00 0.68 0.02 86 997.2
20260901093504 56 287 3.0 9.0 0.00 0.68 0.02 87 997.1
20260901093004 56 276 3.0 10.0 0.00 0.68 0.02 87 997.1
20260901092505 56 289 3.0 14.0 0.00 0.68 0.02 87 997.1
20260901091504 56 309 2.0 7.0 0.00 0.68 0.02 88 997.0
20260901091005 56 299 2.0 7.0 0.00 0.68 0.02 88 997.0
20260901090004 55 323 2.0 12.0 0.00 0.68 0.02 88 997.0
20260901085504 56 305 5.0 10.0 0.00 0.68 0.02 89 996.9
20260901084505 55 304 2.0 7.0 0.00 0.68 0.02 90 996.8
20260901083504 54 294 1.0 6.0 0.00 0.68 0.02 90 996.7
20260901083004 54 271 0.0 3.0 0.00 0.68 0.02 90 996.8
20260901082504 54 306 2.0 6.0 0.00 0.68 0.02 90 996.8
20260901082005 54 301 2.0 7.0 0.00 0.68 0.02 89 996.8
20260901081005 54 268 2.0 6.0 0.00 0.68 0.02 89 996.7
20260901080505 53 293 3.0 10.0 0.00 0.68 0.02 89 996.6
20260901080004 53 267 0.0 8.0 0.00 0.68 0.02 89 996.6
20260901075505 53 288 2.0 7.0 0.01 0.68 0.02 89 996.6
20260901075004 53 254 2.0 7.0 0.02 0.68 0.02 89 996.6
20260901074504 53 276 3.0 7.0 0.02 0.68 0.02 88 996.5
20260901074005 53 235 1.0 6.0 0.02 0.68 0.02 88 996.5
20260901073505 53 272 0.0 0.0 0.02 0.68 0.02 88 996.5
20260901073004 53 218 1.0 5.0 0.02 0.68 0.02 88 996.4
20260901072505 53 274 2.0 7.0 0.02 0.68 0.02 88 996.4
20260901072004 53 280 1.0 3.0 0.02 0.68 0.02 88 996.4
20260901071504 53 280 2.0 7.0 0.02 0.68 0.02 88 996.4
20260901071004 53 255 1.0 6.0 0.02 0.68 0.02 88 996.4
20260901070504 53 282 2.0 7.0 0.02 0.68 0.02 88 996.3
20260901070004 53 285 1.0 6.0 0.02 0.68 0.02 88 996.3
20260901065504 53 282 2.0 6.0 0.01 0.67 0.01 88 996.2
20260901065005 53 277 2.0 7.0 0.00 0.66 0.00 88 996.1
20260901064504 53 291 0.0 0.0 0.00 0.66 0.00 88 996.1
20260901064005 53 291 0.0 0.0 0.00 0.66 0.00 88 996.0
20260901063505 53 288 2.0 7.0 0.00 0.66 0.00 88 996.0
20260901063004 53 242 1.0 3.0 0.00 0.66 0.00 88 996.0
20260901062504 54 239 1.0 3.0 0.00 0.66 0.00 87 996.0
20260901062004 54 239 1.0 3.0 0.00 0.66 0.00 87 996.0
20260901061004 54 236 0.0 3.0 0.00 0.66 0.00 86 995.8
20260901060004 54 236 0.0 0.0 0.00 0.66 0.00 86 995.8
20260901055507 54 236 0.0 0.0 0.00 0.66 0.00 85 995.8
20260901055005 54 219 1.0 3.0 0.00 0.66 0.00 85 995.8
20260901054504 54 262 0.0 5.0 0.00 0.66 0.00 85 995.8
20260901053504 54 231 2.0 5.0 0.00 0.66 0.00 84 995.8
20260901053005 54 294 0.0 0.0 0.00 0.66 0.00 84 995.8
20260901052504 54 294 0.0 0.0 0.00 0.66 0.00 84 995.7
20260901052005 54 294 0.0 0.0 0.00 0.66 0.00 84 995.7
20260901051504 54 294 0.0 0.0 0.00 0.66 0.00 83 995.7
20260901051004 54 294 0.0 0.0 0.00 0.66 0.00 83 995.8
20260901050004 54 294 0.0 0.0 0.00 0.66 0.00 84 995.8
20260901045504 54 294 0.0 0.0 0.00 0.66 0.00 84 995.8
20260901044506 54 294 0.0 0.0 0.00 0.66 0.00 83 995.8
20260901044004 54 294 0.0 6.0 0.00 0.66 0.00 83 995.8
20260901043504 54 220 0.0 0.0 0.00 0.66 0.00 83 995.8
20260901043004 54 220 0.0 0.0 0.00 0.66 0.00 83 995.8
20260901042004 54 219 0.0 0.0 0.00 0.66 0.00 83 995.8
20260901041504 54 219 0.0 3.0 0.00 0.66 0.00 83 995.7
20260901040504 54 219 0.0 0.0 0.00 0.66 0.00 83 995.7
20260901040004 54 219 0.0 0.0 0.00 0.66 0.00 83 995.7
20260901035504 54 219 0.0 0.0 0.00 0.66 0.00 83 995.7
20260901034504 54 219 0.0 0.0 0.00 0.66 0.00 83 995.7
20260901034004 54 219 0.0 0.0 0.00 0.66 0.00 83 995.7
20260901033505 54 219 0.0 0.0 0.00 0.66 0.00 83 995.7
20260901033004 54 219 0.0 0.0 0.00 0.66 0.00 83 995.6
20260901032504 54 219 0.0 1.0 0.00 0.66 0.00 83 995.6
20260901031504 54 219 1.0 5.0 0.00 0.66 0.00 82 995.6
20260901030504 54 217 0.0 0.0 0.00 0.66 0.00 82 995.5
20260901025504 54 155 0.0 5.0 0.00 0.66 0.00 82 995.6
20260901025004 54 155 2.0 5.0 0.00 0.66 0.00 81 995.6
20260901024504 54 155 1.0 3.0 0.00 0.66 0.00 81 995.6
20260901024005 54 155 0.0 0.0 0.00 0.66 0.00 81 995.6
20260901023505 54 155 0.0 0.0 0.00 0.66 0.00 80 995.6
20260901023004 54 155 0.0 0.0 0.00 0.66 0.00 80 995.6
20260901022504 54 155 0.0 0.0 0.00 0.66 0.00 80 995.6
20260901022005 54 155 0.0 0.0 0.00 0.66 0.00 80 995.6
20260901021004 55 155 0.0 0.0 0.00 0.66 0.00 80 995.5
20260901020505 55 155 0.0 0.0 0.00 0.66 0.00 79 995.6
20260901020005 55 155 0.0 0.0 0.00 0.66 0.00 79 995.5
20260901015504 55 155 0.0 0.0 0.00 0.66 0.00 79 995.5
20260901015004 55 155 0.0 0.0 0.00 0.66 0.00 79 995.4
20260901014504 55 155 0.0 0.0 0.00 0.66 0.00 79 995.4
20260901013504 55 155 0.0 0.0 0.00 0.66 0.00 79 995.4
20260901013004 55 155 0.0 0.0 0.00 0.66 0.00 79 995.4
20260901012504 55 155 0.0 0.0 0.00 0.66 0.00 78 995.3
20260901012004 55 155 0.0 0.0 0.00 0.66 0.00 78 995.3
20260901010504 55 155 0.0 1.0 0.00 0.66 0.00 79 995.3
20260901010004 55 155 0.0 0.0 0.00 0.66 0.00 79 995.3
20260901005005 54 155 0.0 0.0 0.00 0.66 0.00 79 995.4
20260901004504 54 155 0.0 0.0 0.00 0.66 0.00 79 995.4
20260901004005 54 155 0.0 0.0 0.00 0.66 0.00 79 995.4
20260901003505 54 155 0.0 0.0 0.00 0.66 0.00 78 995.5
20260901003004 54 155 0.0 0.0 0.00 0.66 0.00 78 995.5
20260901002504 54 155 0.0 0.0 0.00 0.66 0.00 78 995.5
20260901002005 54 155 0.0 0.0 0.00 0.66 0.00 79 995.5
20260901001504 54 155 0.0 0.0 0.00 0.66 0.00 79 995.5
20260901001004 54 155 0.0 0.0 0.00 0.66 0.00 80 995.6
20260901000004 53 155 0.0 0.0 0.00 0.66 0.00 82 995.7
20260831235504 53 155 0.0 0.0 0.00 0.66 0.00 82 995.7
20260831235004 53 155 0.0 0.0 0.00 0.66 0.00 82 995.8
20260831234505 53 155 0.0 0.0 0.00 0.66 0.00 82 995.8
20260831234004 53 155 0.0 0.0 0.00 0.66 0.00 82 995.8
20260831233505 53 155 0.0 0.0 0.00 0.66 0.00 82 995.8
20260831233005 53 155 0.0 0.0 0.00 0.66 0.00 83 995.8
20260831232506 53 155 0.0 0.0 0.00 0.66 0.00 83 995.8
20260831232006 54 155 0.0 0.0 0.00 0.66 0.00 83 995.8
20260831231505 54 155 0.0 0.0 0.00 0.66 0.00 82 995.8
20260831230504 55 155 0.0 0.0 0.00 0.66 0.00 80 995.8
20260831230004 55 155 0.0 0.0 0.00 0.66 0.00 80 995.8
20260831224504 54 155 0.0 0.0 0.00 0.66 0.00 81 996.0
20260831224005 54 155 0.0 0.0 0.00 0.66 0.00 81 996.0
20260831223505 55 155 0.0 0.0 0.00 0.66 0.00 81 996.0
20260831223004 55 155 0.0 0.0 0.00 0.66 0.00 81 996.0
20260831222504 55 155 0.0 0.0 0.00 0.66 0.00 81 996.0
20260831222004 55 155 0.0 0.0 0.00 0.66 0.00 81 996.0
20260831221504 55 155 0.0 0.0 0.00 0.66 0.00 81 996.0
20260831220504 55 155 0.0 0.0 0.00 0.66 0.00 81 996.0
20260831220004 55 155 0.0 0.0 0.00 0.66 0.00 81 996.1
20260831215504 55 155 0.0 0.0 0.00 0.66 0.66 82 996.1
20260831215004 55 155 0.0 0.0 0.00 0.66 0.66 82 996.2
20260831214504 55 155 0.0 0.0 0.00 0.66 0.66 82 996.1
20260831214004 55 155 0.0 0.0 0.00 0.66 0.66 82 996.1
20260831213504 55 155 0.0 0.0 0.00 0.66 0.66 82 996.1
20260831212504 55 155 0.0 0.0 0.00 0.66 0.66 83 996.2
20260831212004 55 155 0.0 0.0 0.00 0.66 0.66 83 996.2
20260831211505 55 155 0.0 0.0 0.00 0.66 0.66 83 996.2
20260831211004 55 155 0.0 0.0 0.01 0.66 0.66 83 996.2
20260831210504 55 155 0.0 0.0 0.03 0.66 0.66 83 996.2
20260831210004 55 155 0.0 0.0 0.04 0.66 0.66 83 996.2
20260831205004 56 155 0.0 0.0 0.07 0.66 0.66 82 996.3
20260831204504 56 155 0.0 0.0 0.08 0.66 0.66 82 996.3
20260831204004 56 155 0.0 0.0 0.09 0.66 0.66 82 996.2
20260831203504 56 155 0.0 0.0 0.10 0.66 0.66 82 996.3
20260831203004 56 155 0.0 0.0 0.10 0.66 0.66 82 996.2
20260831202505 56 155 0.0 0.0 0.10 0.66 0.66 82 996.3
20260831202004 56 155 0.0 0.0 0.10 0.66 0.66 82 996.4
20260831201504 56 155 0.0 0.0 0.10 0.66 0.66 82 996.4
20260831201004 56 155 0.0 0.0 0.09 0.65 0.65 82 996.4
20260831200505 56 155 0.0 0.0 0.07 0.63 0.63 82 996.5
20260831200004 56 155 0.0 0.0 0.06 0.62 0.62 82 996.5
20260831195504 56 155 0.0 0.0 0.04 0.60 0.60 82 996.5
20260831195005 56 155 0.0 0.0 0.03 0.59 0.59 82 996.5
20260831194504 56 155 0.0 0.0 0.02 0.58 0.58 82 996.5
20260831194004 56 155 0.0 0.0 0.01 0.57 0.57 82 996.6
20260831193505 56 155 0.0 0.0 0.00 0.56 0.56 82 996.5
20260831193005 56 155 0.0 0.0 0.00 0.56 0.56 82 996.5